Terminal Aerodrome Forecast
Issued by NWS Mobile, AL

Home | Current Version | Previous Version | Text Only | Print | Product List | Glossary On
Versions: 1 2 3 4 5 6 7 8 9 10 11 12 13 14 15 16 17 18 19 20 21 22 23 24
000
FTUS44 KMOB 231100
TAFMOB
TAF
KMOB 231127Z 2312/2412 29003KT P6SM FEW090 FEW150
     FM231400 34005KT P6SM FEW030
     FM232100 25005KT P6SM VCTS SCT030CB
     FM240100 29003KT P6SM SKC=

USA.gov is the U.S. government's official web portal to all federal, state and local government web resources and services.